CW3583 Weather Reports


time (UTC)temp
C
wind
direction
speed
KPH
gust
KPH
rain 1hr
cm
rain 24hr
cm
rain mn
cm
humidity
%
barometer
mb
20260503021806 14 206 4.8 8.0 0.00 1.12 0.08 93 1013.4
20260503020306 14 212 3.2 4.8 0.00 1.12 0.08 93 1013.4
20260503015803 14 197 4.8 9.7 0.00 1.12 0.08 93 1013.6
20260503015305 14 225 4.8 8.0 0.00 1.12 0.08 93 1013.6
20260503013305 15 157 0.0 0.0 0.00 1.12 0.08 93 1013.6
20260503012803 15 157 0.0 4.8 0.00 1.12 0.08 93 1013.6
20260503012305 15 157 1.6 4.8 0.00 1.12 0.08 93 1013.7
20260503011304 15 157 0.0 4.8 0.00 1.12 0.08 93 1014.0
20260503001805 15 209 0.0 4.8 0.08 1.12 0.08 93 1014.3
20260502235803 15 209 3.2 4.8 0.08 1.12 0.08 93 1014.4
20260502234807 15 210 3.2 4.8 0.08 1.12 0.08 93 1014.4
20260502233803 15 249 1.6 4.8 0.05 1.09 0.05 93 1014.5
20260502232803 15 240 6.4 8.0 0.05 1.09 0.05 93 1014.5
20260502230806 15 235 4.8 8.0 0.00 1.04 0.00 93 1014.5
20260502225803 15 228 6.4 11.3 0.00 1.04 0.00 93 1014.5
20260502224806 15 238 4.8 8.0 0.00 1.04 0.00 93 1014.5
20260502223804 15 238 3.2 4.8 0.00 1.04 0.00 93 1014.5
20260502223306 15 238 3.2 4.8 0.00 1.04 0.00 93 1014.6
20260502215305 15 239 4.8 8.0 0.00 1.04 1.04 93 1014.6
20260502214806 15 239 4.8 8.0 0.00 1.04 1.04 93 1014.6
20260502213803 15 239 4.8 9.7 0.00 1.04 1.04 93 1014.7
20260502213307 15 239 6.4 9.7 0.00 1.04 1.04 93 1014.7
20260502210804 15 195 3.2 4.8 0.00 1.04 1.04 93 1014.7
20260502210306 15 180 4.8 4.8 0.00 1.04 1.04 93 1014.8
20260502205305 15 208 3.2 8.0 0.00 1.04 1.04 93 1014.8
20260502203306 15 215 4.8 8.0 0.00 1.04 1.04 93 1014.7
20260502202305 15 219 8.0 14.5 0.00 1.04 1.04 93 1014.7
20260502201807 15 208 4.8 11.3 0.00 1.04 1.04 93 1014.6
20260502201303 15 227 6.4 11.3 0.00 1.04 1.04 92 1014.6
20260502195803 15 257 9.7 14.5 0.00 1.04 1.04 92 1014.6
20260502194805 15 249 9.7 14.5 0.00 1.04 1.04 92 1014.6
20260502193305 15 268 9.7 12.9 0.00 1.04 1.04 92 1014.6
20260502185804 16 254 4.8 9.7 0.00 1.04 1.04 93 1014.2
20260502183804 16 273 8.0 11.3 0.00 1.04 1.04 92 1014.2
20260502181806 16 277 4.8 4.8 0.00 1.04 1.04 93 1014.1
20260502181304 16 270 4.8 9.7 0.00 1.04 1.04 92 1014.0
20260502180804 16 254 6.4 9.7 0.00 1.04 1.04 92 1013.9
20260502164303 16 9 14.5 20.9 0.51 1.02 1.02 92 1014.0
20260502163803 16 15 16.1 19.3 0.51 1.02 1.02 92 1014.0
20260502163306 16 350 4.8 11.3 0.53 1.02 1.02 92 1014.7
20260502160803 16 266 11.3 19.3 0.33 0.76 0.76 91 1014.9
20260502160305 16 263 9.7 16.1 0.23 0.66 0.66 91 1014.9
20260502121807 16 122 11.3 19.3 0.00 0.33 0.33 92 1015.7
20260502120804 16 91 8.0 19.3 0.00 0.33 0.33 92 1015.4
20260502120306 16 94 9.7 16.1 0.00 0.33 0.33 92 1015.5
20260502115306 16 87 11.3 16.1 0.00 0.33 0.33 92 1015.4
20260502114807 16 82 6.4 11.3 0.00 0.33 0.33 92 1015.4
20260502113306 16 38 8.0 9.7 0.00 0.33 0.33 92 1015.5
20260502112305 16 358 11.3 14.5 0.00 0.33 0.33 92 1015.7
20260502111806 16 348 9.7 19.3 0.00 0.33 0.33 92 1015.9
20260502111304 16 343 19.3 20.9 0.00 0.33 0.33 92 1015.8
20260502105804 16 343 16.1 20.9 0.00 0.33 0.33 92 1016.2
20260502104304 16 299 8.0 12.9 0.00 0.33 0.33 92 1016.5
20260502103804 16 38 3.2 4.8 0.00 0.33 0.33 92 1016.3
20260502100306 16 87 4.8 8.0 0.00 0.33 0.33 92 1016.2
20260502091304 16 95 1.6 8.0 0.10 0.33 0.33 92 1016.3
20260502090804 16 79 3.2 11.3 0.10 0.33 0.33 92 1016.2
20260502071304 16 271 14.5 20.9 0.00 0.00 0.00 92 1017.2
20260502065306 16 240 9.7 16.1 0.00 0.00 0.00 92 1016.5
20260502063306 16 268 6.4 12.9 0.00 0.00 0.00 92 1016.4
20260502062804 16 236 4.8 8.0 0.00 0.00 0.00 92 1016.3
20260502055305 16 250 6.4 11.3 0.00 0.00 0.00 92 1015.8
20260502053305 16 301 8.0 11.3 0.00 0.00 0.00 92 1015.6
20260502052803 16 315 8.0 11.3 0.00 0.00 0.00 92 1015.6
20260502051304 16 312 9.7 12.9 0.00 0.00 0.00 92 1015.7
20260502050803 16 277 8.0 12.9 0.00 0.00 0.00 92 1015.7
20260502044807 16 306 9.7 9.7 0.00 0.00 0.00 92 1015.7
20260502043804 16 313 6.4 8.0 0.00 0.00 0.00 92 1015.6
20260502042804 16 314 3.2 4.8 0.00 0.00 0.00 92 1015.6
20260502041807 16 93 1.6 1.6 0.00 0.00 0.00 92 1015.6
20260502040804 16 93 0.0 1.6 0.00 0.00 0.00 92 1015.5
20260502040306 16 93 1.6 3.2 0.00 0.00 0.00 91 1015.2
20260502034806 16 93 3.2 9.7 0.00 0.00 0.00 91 1015.2
20260502032803 16 120 9.7 12.9 0.00 0.00 0.00 91 1015.4
20260502031806 16 130 4.8 9.7 0.00 0.00 0.00 91 1015.6
20260502025306 16 261 1.6 3.2 0.00 0.00 0.00 91 1015.7
20260502022803 16 292 3.2 4.8 0.00 0.00 0.00 91 1016.0